This demonstration page uses our WeatherBlox Daily Observations layout. Learn more.

Left ArrowRight Arrow

39.08367, -84.50855

Hourly Observations for March 19, 2020

Temp ( °F °C ) Dew Point ( °F °C ) Humidity (%) Winds ( mph kmh ) Pressure ( in mb ) Visibility ( mi km ) Precip ( " mm )
12:48 am 00:48 Cloudy with Mist and Fog 61 16 57 14 88 88 W 10 17 30.08 1018 4 6 0.01 0.25
12:53 am 00:53 Cloudy with Light Rain 60 15.6 58 14.4 93 93 W 8 13 30.07 1018 5 8 0.01 0.25
1:12 am 01:12 Cloudy 60 15.6 58 14.4 93 93 W 6 9 30.07 1018 10 16 0.00 0.00
1:38 am 01:38 Cloudy 59 15 58 14.4 96 96 SW 5 7 30.09 1019 10 16 0.00 0.00
1:53 am 01:53 Cloudy 59 15 57 13.9 93 93 SW 6 9 30.09 1019 9 14 0.00 0.00
2:19 am 02:19 Cloudy 59 15 58 14.4 96 96 SW 5 7 30.10 1019 10 16 N/A
2:32 am 02:32 Cloudy 58 14.4 57 13.9 97 97 SW 5 7 30.11 1020 10 16 N/A
2:53 am 02:53 Cloudy 59 15 57 13.9 93 93 WSW 6 9 30.10 1019 10 16 N/A
3:53 am 03:53 Cloudy 58 14.4 57 13.9 97 97 SW 5 7 30.12 1020 10 16 N/A
4:02 am 04:02 Cloudy with Light Rain 58 14.4 57 13.9 97 97 NW 10 17 30.13 1020 9 14 0.00 0.00
4:12 am 04:12 Cloudy with Light Rain 58 14.4 56 13.3 93 93 NNW 7 11 30.13 1020 10 16 0.00 0.00
4:22 am 04:22 Cloudy 58 14.4 55 12.8 90 90 NW 8 13 30.14 1021 10 16 0.00 0.00
4:53 am 04:53 Cloudy 58 14.4 54 12.2 87 87 WNW 5 7 30.13 1020 10 16 0.00 0.00
5:19 am 05:19 Cloudy 57 13.9 54 12.2 90 90 NNW 6 9 30.13 1020 10 16 N/A
5:53 am 05:53 Cloudy 56 13.3 54 12.2 93 93 N N/A 30.14 1021 10 16 N/A
6:09 am 06:09 Cloudy 56 13.3 54 12.2 93 93 N N/A 30.15 1021 10 16 N/A
6:32 am 06:32 Cloudy 55 12.8 53 11.7 93 93 N 5 7 30.15 1021 10 16 N/A
6:43 am 06:43 Cloudy 54 12.2 53 11.7 97 97 NNE 5 7 30.14 1021 10 16 N/A
6:53 am 06:53 Mostly Cloudy 54 12.2 53 11.7 97 97 NNE 5 7 30.15 1021 10 16 N/A
7:51 am 07:51 Cloudy 54 12 54 12 100 100 NE 5 7 30.16 1021 10 16 N/A
7:53 am 07:53 Cloudy 54 12.2 53 11.7 97 97 NE 3 6 30.16 1021 10 16 N/A
8:53 am 08:53 Cloudy 56 13.3 53 11.7 90 90 N N/A 30.16 1021 10 16 N/A
9:42 am 09:42 Cloudy 56 13.3 53 11.7 90 90 E 5 7 30.16 1021 10 16 N/A
9:53 am 09:53 Cloudy 57 13.9 53 11.7 87 87 ENE 6 9 30.15 1021 10 16 N/A
10:53 am 10:53 Cloudy 57 13.9 55 12.8 93 93 ESE 3 6 30.15 1021 10 16 N/A
11:53 am 11:53 Cloudy 59 15 56 13.3 90 90 S 5 7 30.13 1020 10 16 N/A
12:43 pm 12:43 Cloudy 60 15.6 57 13.9 90 90 E 5 7 30.09 1019 10 16 N/A
12:53 pm 12:53 Cloudy 61 16.1 57 13.9 87 87 N N/A 30.09 1019 10 16 N/A
1:53 pm 13:53 Cloudy with Light Rain 61 16.1 58 14.4 90 90 N N/A 30.08 1019 9 14 0.01 0.25
2:31 pm 14:31 Cloudy with Rain 60 15.6 59 15 96 96 N N/A 30.07 1018 3 4 0.08 2.03
2:45 pm 14:45 Cloudy with Rain 61 16.1 59 15 93 93 N 3 6 30.05 1017 3 5 0.11 2.79
2:53 pm 14:53 Cloudy with Light Rain 61 16.1 59 15 93 93 NW 3 6 30.05 1018 3 5 0.12 3.05
3:00 pm 15:00 Cloudy with Heavy Rain 61 16.1 60 15.6 97 97 N N/A 30.05 1017 2 3 0.03 0.76
3:02 pm 15:02 Cloudy with Rain 61 16.1 60 15.6 97 97 N N/A 30.05 1017 2 3 0.04 1.02
3:09 pm 15:09 Cloudy with Rain 61 16.1 60 15.6 97 97 N N/A 30.04 1017 2 3 0.07 1.78
3:53 pm 15:53 Cloudy with Heavy Rain 63 17.2 62 16.7 97 97 SE 7 11 29.98 1015 2 3 0.25 6.35
4:53 pm 16:53 Cloudy with Light Rain 64 17.8 62 16.7 93 93 S 10 17 29.99 1016 6 10 0.20 5.08
5:53 pm 17:53 Cloudy with Mist and Fog 65 18.3 64 17.8 97 97 S 8 13 29.96 1015 10 16 0.00 0.00
6:53 pm 18:53 Cloudy with Rain 66 18.9 64 17.8 93 93 S 10 17 29.95 1014 3 5 0.04 1.02
7:53 pm 19:53 Cloudy with Light Rain 66 18.9 64 17.8 93 93 S 10 17 29.97 1015 4 6 0.19 4.83
8:53 pm 20:53 Cloudy with Light Rain 66 18.9 64 17.8 93 93 S 10 17 29.96 1014 5 8 0.00 0.00
9:53 pm 21:53 Cloudy with Mist and Fog 67 19.4 63 17.2 87 87 SSW 13 20 29.96 1014 5 8 0.08 2.03
10:53 pm 22:53 Mostly Cloudy with Light Rain 68 20 63 17.2 84 84 SSW 21 33 29.95 1014 8 13 0.02 0.51
11:53 pm 23:53 Cloudy 67 19.4 64 17.8 91 91 S 13 20 29.94 1014 10 16 0.03 0.76

Powered by AerisWeather